Regional Weather Roundup
Issued by NWS

Home | Current Version | Previous Version | Text Only | Print | Product List | Glossary On
Versions: 1 2 3 4 5 6 7 8 9 10 11 12 13 14 15 16 17 18 19 20 21 22 23 24 25 26 27 28 29 30 31 32 33 34 35 36 37 38 39 40 41 42 43 44 45 46 47 48 49 50
049
ASUS43 KMPX 091401
RWRMN
WEATHER ROUNDUP FOR MINNESOTA
NATIONAL WEATHER SERVICE TWIN CITIES/CHANHASSEN MN
800 AM CST FRI DEC 09 2016


NOTE: "FAIR" INDICATES FEW OR NO CLOUDS BELOW 12,000 FEET WITH NO
SIGNIFICANT WEATHER AND/OR OBSTRUCTIONS TO VISIBILITY. N/A MEANS
CURRENT SKY AND/OR WEATHER CONDITIONS ARE NOT AVAILABLE.

MNZ060>063-068>070-091500-
   Twin Cities Metro

CITY           SKY/WX    TMP DP  RH WIND       PRES   REMARKS
TWIN CITIES    CLOUDY    14   9  80 SW8       30.55R HAZE    WCI   3
ST PAUL        CLOUDY    16  32 100 W7        30.56S WCI   6
CRYSTAL        CLOUDY    13   7  77 W9        30.54R WCI   1
BLAINE         MOCLDY    16  10  79 W8        30.53R WCI   5
LAKEVILLE      MOCLDY     7   3  85 W9        30.54S WCI  -7
EDEN PRAIRIE   PTCLDY    11   6  81 W6        30.54R WCI   1
SOUTH ST PAUL  CLOUDY    15  11  81 W6        30.55R WCI   7
LAKE ELMO      CLOUDY    18  12  79 W6        30.54S WCI   9
$$
MNZ001>005-007-008-013>017-022>024-027-028-091500-
   Northwest Minnesota

CITY           SKY/WX    TMP DP  RH WIND       PRES   REMARKS
BEMIDJI        CLOUDY     4   0  83 CALM      30.48S
HALLOCK        CLOUDY     3  -2  78 N8        30.56S WCI -10
ROSEAU         CLOUDY     3  -2  78 NW6       30.53S WCI  -8
WARROAD        CLOUDY     1  -2  85 NW9       30.52S WCI -14
THIEF RVR FALL FLURRIES   6   2  83 NW8       30.53S WCI  -7
CROOKSTON      CLOUDY     7   1  78 NW9       30.57S WCI  -7
FOSSTON        LGT SNOW   3   0  85 CALM      30.51S
DETROIT LAKES  LGT SNOW   7   5  92 W6        30.51S WCI  -3
MOORHEAD       MIX PCPN   7   1  78 NW7       30.57S WCI  -5
PARK RAPIDS    CLOUDY     7   0  73 N3        30.48S
$$
MNZ006-009>011-018-025>026-091500-
   North Central Minnesota

CITY           SKY/WX    TMP DP  RH WIND       PRES   REMARKS
BAUDETTE       CLOUDY     4  -5  66 NW16      30.49R WCI -15
FLAG ISLAND    CLOUDY     1  -2  85 W13       30.49S WCI -16
INTL FALLS     LGT SNOW   5   0  79 W10       30.47R WCI -10
WASKISH        CLOUDY     5   0  78 NW7       30.50S WCI  -7
BIG FORK       CLOUDY     5   0  78 W3        30.48S
LONGVILLE      CLOUDY     9   3  78 W3        30.49R
GRAND RAPIDS   FLURRIES   7   2  80 NW7       30.50R WCI  -5
CRANE LAKE     FLURRIES   7   3  85 W3        30.46S
ORR            CLOUDY     5  -2  72 W9        30.43R WCI  -9
COOK           CLOUDY     7   1  78 NW8       30.45R WCI  -6
$$
MNZ012-019>021-037-091500-
   Northeast Minnesota

CITY           SKY/WX    TMP DP  RH WIND       PRES   REMARKS
DULUTH         PTCLDY     8   3  80 NW8       30.44R WCI  -4
ELY            FLURRIES   9   5  85 W6        30.41R WCI  -1
HIBBING        CLOUDY     5   1  83 NW8       30.46R FOG     WCI  -8
EVELETH        FLURRIES  10   5  81 W12       30.46R WCI  -5
DULUTH HARBOR  CLOUDY    16   7  67 NW5       30.52R WCI   9
TWO HARBORS    LGT SNOW  14   7  73 CALM      30.44R
SILVER BAY     CLOUDY    12   7  79 W3        30.42S
GRAND MARAIS     N/A     16  10  77 CALM      30.45R
G MARAIS ARPRT LGT SNOW   7   1  78 CALM      30.33S
$$
MNZ029>031-032-039>041-046>048-054>057-064-091500-
   West Central Minnesota

CITY           SKY/WX    TMP DP  RH WIND       PRES   REMARKS
FERGUS FALLS   CLOUDY     3   0  85 W7        30.60S WCI  -9
WHEATON        CLOUDY     0  -6  78 W3        30.60R
MORRIS         CLOUDY     3   0  85 NW7       30.55R WCI  -9
ALEXANDRIA     CLOUDY     5   2  87 W8        30.51F WCI  -8
ELBOW LAKE     CLOUDY     2  -1  85 NW5       30.55S WCI  -7
WADENA         CLOUDY     7   1  78 NW6       30.50S WCI  -3
GLENWOOD       CLOUDY     3   1  92 CALM      30.52
APPLETON       CLOUDY     3  -2  78 W8        30.58R WCI -10
BENSON         FLURRIES   5   0  78 N5        30.55S WCI  -4
ORTONVILLE     PTCLDY     0  -6  78 CALM      30.57S
MADISON        CLEAR      1  -2  85 NW7       30.58S WCI -11
WILLMAR        FLURRIES   7   3  85 W5        30.56S WCI  -2
$$
MNZ033>034-036-042>043-049>051-058-059-091500-
   Central Minnesota

CITY           SKY/WX    TMP DP  RH WIND       PRES   REMARKS
ST CLOUD       CLEAR      5   2  87 W5        30.54R WCI  -4
PAYNESVILLE    CLEAR      0  -2  91 W5        30.53F WCI -10
AITKIN         CLOUDY    12   5  73 CALM      30.48S
PINE RIVER     CLOUDY     9   5  85 W3        30.51S
BRAINERD       CLOUDY    10   5  80 NW5       30.50S WCI   2
STAPLES        CLOUDY     7   3  85 NW6       30.50S WCI  -3
LONG PRAIRIE   CLOUDY     9   5  85 W6        30.51S WCI  -1
LITTLE FALLS   CLOUDY     9   3  78 CALM      30.52F
LITCHFIELD     CLEAR      5   1  85 CALM      30.54F
BUFFALO        CLEAR      8   4  85 W6        30.56R WCI  -3
MAPLE LAKE     LGT SNOW   7   4  89 W3        30.55S
HUTCHINSON     CLEAR      4   1  87 W6        30.56S WCI  -6
$$
MNZ037-044-045-052-053-091500-
   East Central Minnesota

CITY           SKY/WX    TMP DP  RH WIND       PRES   REMARKS
PRINCETON      FLURRIES  10   7  85 SW3       30.53R
MORA           LGT SNOW  12   9  85 NW5       30.53R WCI   4
CAMBRIDGE      FLURRIES  16   7  67 W6        30.51R WCI   7
RUSH CITY      CLOUDY    14  10  85 W5        30.53R WCI   6
MOOSE LAKE     CLOUDY    12   7  79 NW6       30.48R WCI   3
HINCKLEY       CLOUDY    14  10  85 NW6       30.51R WCI   5
CLOQUET        FLURRIES   9   3  78 W7        30.46R WCI  -3
MCGREGOR       CLOUDY    10   7  85 NW6       30.49S WCI   1
$$
MNZ071>073-080-081-089-090-097-098-091500-
   Southwest Minnesota

CITY           SKY/WX    TMP DP  RH WIND       PRES   REMARKS
MONTEVIDEO     CLOUDY     1  -2  85 N7        30.59R WCI -11
GRANITE FALLS  CLEAR      1  -3  83 W6        30.60R WCI -11
CANBY          PTCLDY     0  -4  82 CALM      30.58S
MARSHALL       CLEAR      0  -5  79 W6        30.58R WCI -12
REDWOOD FALLS  CLOUDY     1  -4  79 W7        30.58R WCI -12
OLIVIA         FLURRIES   1  -2  85 W6        30.56S WCI -10
PIPESTONE      CLOUDY     0  -4  85 NW3       30.51R
WINDOM         CLOUDY     1  -2  85 CALM      30.54R
WORTHINGTON    CLOUDY     1  -3  83 W6        30.54R WCI -10
JACKSON        CLOUDY     3   0  85 NW5       30.54R WCI  -6
TRACY          CLEAR      2  -2  83 W3        30.56R
SLAYTON        CLEAR     -1  -4  85 CALM      30.52S
$$
MNZ065>067-074>077-082>085-091>093-091500-
   South Central Minnesota

CITY           SKY/WX    TMP DP  RH WIND       PRES   REMARKS
MANKATO        CLEAR      4   0  83 W6        30.57S WCI  -7
NEW ULM          N/A      1  -2  85 NW6       30.57R WCI -10
ST JAMES       CLEAR      3   0  85 W6        30.58R WCI  -8
FAIRMONT       CLEAR      5   1  83 NW9       30.57R WCI  -9
GLENCOE        CLEAR      6   4  91 W7        30.55S WCI  -5
OWATONNA       FLURRIES   7   3  85 W6        30.54R WCI  -3
WASECA         LGT SNOW   5   1  85 W5        30.56S WCI  -4
ALBERT LEA     CLOUDY    12   9  85 W5        30.53S WCI   4
$$
MNZ078>079-086>088-094>096-091500-
   Southeast Minnesota

CITY           SKY/WX    TMP DP  RH WIND       PRES   REMARKS
ROCHESTER      CLEAR      6   4  91 W6        30.52R WCI  -4
RED WING       FLURRIES  12   9  85 W7        30.54S WCI   2
STANTON        CLEAR      8   4  84 SW6       30.55R WCI  -3
DODGE CENTER   LGT SNOW   9   7  92 W5        30.52R VSB 3/4 WCI   0
WINONA         CLOUDY    18  12  79 NW8       30.56R WCI   7
AUSTIN         LGT SNOW  10   7  85 NW6       30.53S VSB 1   WCI   1
PRESTON        LGT SNOW   8   6  89 W9        30.53R WCI  -5
$$
ABBREVIATIONS USED IN REMARKS
   TC - TEMPERATURES IN CELSIUS
  WCI - WIND CHILL INDEX
   HX - HEAT INDEX
  VSB - VISIBILITY
$$




USA.gov is the U.S. government's official web portal to all federal, state and local government web resources and services.